Time,TemperatureF,DewpointF,PressureIn,WindDirection,WindDirectionDegrees,WindSpeedMPH,WindSpeedGustMPH,Humidity,HourlyPrecipIn,Conditions,Clouds,dailyrainin,SoftwareType,DateUTC
2013-02-13 00:01:00,47.7,43.4,29.65,SE,135,0.0,0.0,85,0.00,CLR,,0.00,WeatherDisplay:10.37,2013-02-13 08:01:00,
2013-02-13 00:06:00,47.7,43.4,29.65,SE,135,0.0,0.0,85,0.00,CLR,,0.00,WeatherDisplay:10.37,2013-02-13 08:06:00,
2013-02-13 00:11:00,47.7,43.4,29.65,East,90,0.0,0.0,85,0.00,CLR,,0.00,WeatherDisplay:10.37,2013-02-13 08:11:00,
2013-02-13 00:16:00,47.7,43.7,29.65,SE,135,0.0,0.0,86,0.00,CLR,,0.00,WeatherDisplay:10.37,2013-02-13 08:16:00,
2013-02-13 00:21:00,47.5,43.2,29.67,West,270,0.0,0.0,85,0.00,CLR,,0.00,WeatherDisplay:10.37,2013-02-13 08:21:00,
2013-02-13 00:26:00,47.5,43.5,29.66,East,90,0.0,0.0,86,0.00,CLR,,0.00,WeatherDisplay:10.37,2013-02-13 08:26:00,
2013-02-13 00:31:00,47.5,43.5,29.67,East,90,0.0,0.0,86,0.00,CLR,,0.00,WeatherDisplay:10.37,2013-02-13 08:31:00,
2013-02-13 00:36:00,47.5,43.5,29.66,South,180,0.0,0.0,86,0.00,CLR,,0.00,WeatherDisplay:10.37,2013-02-13 08:36:00,
2013-02-13 00:41:00,47.3,43.3,29.67,South,180,0.0,0.0,86,0.00,CLR,,0.00,WeatherDisplay:10.37,2013-02-13 08:41:00,
2013-02-13 00:46:00,47.5,43.5,29.67,East,90,0.0,0.0,86,0.00,CLR,,0.00,WeatherDisplay:10.37,2013-02-13 08:46:00,
2013-02-13 00:51:00,47.1,43.1,29.66,North,0,0.0,0.0,86,0.00,CLR,,0.00,WeatherDisplay:10.37,2013-02-13 08:51:00,
2013-02-13 00:56:00,47.3,43.3,29.67,West,270,0.0,0.0,86,0.00,CLR,,0.00,WeatherDisplay:10.37,2013-02-13 08:56:00,
2013-02-13 01:01:00,46.9,43.3,29.67,NW,315,0.0,0.0,87,0.00,CLR,,0.00,WeatherDisplay:10.37,2013-02-13 09:01:00,
2013-02-13 01:06:00,47.1,43.4,29.67,NW,315,0.0,0.0,87,0.00,CLR,,0.00,WeatherDisplay:10.37,2013-02-13 09:06:00,
2013-02-13 01:11:00,47.1,43.4,29.67,NW,315,0.0,0.0,87,0.00,CLR,,0.00,WeatherDisplay:10.37,2013-02-13 09:11:00,
2013-02-13 01:16:00,46.8,43.1,29.67,West,270,0.0,0.0,87,0.00,CLR,,0.00,WeatherDisplay:10.37,2013-02-13 09:16:00,
2013-02-13 01:21:00,45.9,42.5,29.68,NW,315,0.0,0.0,88,0.00,CLR,,0.00,WeatherDisplay:10.37,2013-02-13 09:21:00,
2013-02-13 01:26:00,45.5,42.7,29.68,West,270,0.0,0.0,90,0.00,CLR,,0.00,WeatherDisplay:10.37,2013-02-13 09:26:00,
2013-02-13 01:31:00,45.0,42.2,29.68,West,270,0.0,0.0,90,0.00,CLR,,0.00,WeatherDisplay:10.37,2013-02-13 09:31:00,
2013-02-13 01:36:00,44.8,42.3,29.68,SW,225,0.0,0.0,91,0.00,CLR,,0.00,WeatherDisplay:10.37,2013-02-13 09:36:00,
2013-02-13 01:41:00,44.6,42.1,29.68,SW,225,0.0,0.0,91,0.01,RA,,0.01,WeatherDisplay:10.37,2013-02-13 09:41:00,
2013-02-13 01:46:00,44.4,42.0,29.68,North,0,0.0,0.0,91,0.01,RA,,0.01,WeatherDisplay:10.37,2013-02-13 09:46:00,
2013-02-13 01:51:00,44.2,42.1,29.69,West,270,0.0,0.0,92,0.01,,,0.01,WeatherDisplay:10.37,2013-02-13 09:51:00,
2013-02-13 01:56:00,44.2,42.1,29.68,West,270,0.0,0.0,92,0.01,CLR,,0.01,WeatherDisplay:10.37,2013-02-13 09:56:00,
2013-02-13 02:01:00,44.2,42.1,29.68,West,270,0.0,0.0,92,0.01,CLR,,0.01,WeatherDisplay:10.37,2013-02-13 10:01:00,
2013-02-13 02:06:00,44.1,41.9,29.68,NW,315,0.0,0.0,92,0.01,CLR,,0.01,WeatherDisplay:10.37,2013-02-13 10:06:00,
2013-02-13 02:11:00,43.9,41.7,29.68,NW,315,0.0,0.0,92,0.01,CLR,,0.01,WeatherDisplay:10.37,2013-02-13 10:11:00,
2013-02-13 02:16:00,43.9,41.7,29.69,NW,315,0.0,0.0,92,0.01,CLR,,0.01,WeatherDisplay:10.37,2013-02-13 10:16:00,
2013-02-13 02:21:00,43.9,42.0,29.69,NW,315,0.0,0.0,93,0.01,CLR,,0.01,WeatherDisplay:10.37,2013-02-13 10:21:00,
2013-02-13 02:26:00,43.9,42.0,29.69,NW,315,0.0,0.0,93,0.01,CLR,,0.01,WeatherDisplay:10.37,2013-02-13 10:26:00,
2013-02-13 02:31:00,43.7,41.8,29.69,East,90,0.0,0.0,93,0.01,CLR,,0.01,WeatherDisplay:10.37,2013-02-13 10:31:00,
2013-02-13 02:36:00,43.7,41.8,29.69,West,270,0.0,0.0,93,0.01,CLR,,0.01,WeatherDisplay:10.37,2013-02-13 10:36:00,
2013-02-13 02:41:00,43.7,41.8,29.69,West,270,0.0,0.0,93,0.00,CLR,,0.01,WeatherDisplay:10.37,2013-02-13 10:41:00,
2013-02-13 02:46:00,43.5,41.6,29.69,North,0,0.0,0.0,93,0.00,CLR,,0.01,WeatherDisplay:10.37,2013-02-13 10:46:00,
2013-02-13 02:51:00,43.5,41.6,29.69,North,0,0.0,0.0,93,0.00,CLR,,0.01,WeatherDisplay:10.37,2013-02-13 10:51:00,
2013-02-13 02:56:00,43.5,41.6,29.69,North,0,0.0,0.0,93,0.00,CLR,,0.01,WeatherDisplay:10.37,2013-02-13 10:56:00,
2013-02-13 03:01:00,43.5,41.6,29.70,NE,45,0.0,0.0,93,0.00,CLR,,0.01,WeatherDisplay:10.37,2013-02-13 11:01:00,
2013-02-13 03:06:00,43.5,41.6,29.70,SW,225,0.0,0.0,93,0.00,CLR,,0.01,WeatherDisplay:10.37,2013-02-13 11:06:00,
2013-02-13 03:11:00,43.3,41.5,29.70,West,270,0.0,0.0,93,0.00,CLR,,0.01,WeatherDisplay:10.37,2013-02-13 11:11:00,
2013-02-13 03:16:00,43.3,41.5,29.70,South,180,0.0,0.0,93,0.00,CLR,,0.01,WeatherDisplay:10.37,2013-02-13 11:16:00,
2013-02-13 03:21:00,43.3,41.5,29.70,South,180,0.0,0.0,93,0.00,CLR,,0.01,WeatherDisplay:10.37,2013-02-13 11:21:00,
2013-02-13 03:26:00,43.2,41.3,29.70,NE,45,0.0,0.0,93,0.00,CLR,,0.01,WeatherDisplay:10.37,2013-02-13 11:26:00,
2013-02-13 03:31:00,43.3,41.5,29.70,East,90,0.0,0.0,93,0.00,CLR,,0.01,WeatherDisplay:10.37,2013-02-13 11:31:00,
2013-02-13 03:36:00,43.3,41.5,29.70,East,90,0.0,0.0,93,0.00,CLR,,0.01,WeatherDisplay:10.37,2013-02-13 11:36:00,
2013-02-13 03:41:00,43.3,41.5,29.70,SW,225,0.0,0.0,93,0.00,CLR,,0.01,WeatherDisplay:10.37,2013-02-13 11:41:00,
2013-02-13 03:46:00,43.2,41.3,29.69,SW,225,0.0,0.0,93,0.00,CLR,,0.01,WeatherDisplay:10.37,2013-02-13 11:46:00,
2013-02-13 03:51:00,43.2,41.3,29.69,North,0,0.0,0.0,93,0.00,CLR,,0.01,WeatherDisplay:10.37,2013-02-13 11:51:00,
2013-02-13 03:57:00,43.2,41.0,29.69,NW,315,0.0,0.0,92,0.00,CLR,,0.01,WeatherDisplay:10.37,2013-02-13 11:57:00,
2013-02-13 04:02:00,43.3,40.9,29.70,North,0,0.0,0.0,91,0.00,CLR,,0.01,WeatherDisplay:10.37,2013-02-13 12:02:00,
2013-02-13 04:07:00,43.3,40.9,29.70,West,270,0.0,0.0,91,0.00,CLR,,0.01,WeatherDisplay:10.37,2013-02-13 12:07:00,
2013-02-13 04:12:00,43.3,40.9,29.70,SW,225,0.0,0.0,91,0.00,CLR,,0.01,WeatherDisplay:10.37,2013-02-13 12:12:00,
2013-02-13 04:17:00,43.5,40.8,29.70,North,0,0.0,0.0,90,0.00,CLR,,0.01,WeatherDisplay:10.37,2013-02-13 12:17:00,
2013-02-13 04:22:00,43.3,40.6,29.70,NW,315,0.0,0.0,90,0.00,CLR,,0.01,WeatherDisplay:10.37,2013-02-13 12:22:00,
2013-02-13 04:27:00,43.3,40.6,29.71,SW,225,0.0,0.0,90,0.00,CLR,,0.01,WeatherDisplay:10.37,2013-02-13 12:27:00,
2013-02-13 04:32:00,43.3,40.3,29.71,North,0,0.0,0.0,89,0.00,CLR,,0.01,WeatherDisplay:10.37,2013-02-13 12:32:00,
2013-02-13 04:37:00,43.3,40.3,29.71,West,270,0.0,0.0,89,0.00,CLR,,0.01,WeatherDisplay:10.37,2013-02-13 12:37:00,
2013-02-13 04:42:00,43.3,40.3,29.71,SW,225,0.0,0.0,89,0.00,CLR,,0.01,WeatherDisplay:10.37,2013-02-13 12:42:00,
2013-02-13 04:47:00,43.3,40.0,29.71,West,270,0.0,0.0,88,0.00,CLR,,0.01,WeatherDisplay:10.37,2013-02-13 12:47:00,
2013-02-13 04:52:00,43.3,40.0,29.71,NW,315,0.0,0.0,88,0.00,CLR,,0.01,WeatherDisplay:10.37,2013-02-13 12:52:00,
2013-02-13 04:57:00,43.3,40.0,29.72,SE,135,0.0,0.0,88,0.00,CLR,,0.01,WeatherDisplay:10.37,2013-02-13 12:57:00,
2013-02-13 05:02:00,43.2,39.8,29.71,South,180,0.0,0.0,88,0.00,CLR,,0.01,WeatherDisplay:10.37,2013-02-13 13:02:00,
2013-02-13 05:07:00,43.2,39.8,29.72,NE,45,0.0,0.0,88,0.00,CLR,,0.01,WeatherDisplay:10.37,2013-02-13 13:07:00,
2013-02-13 05:12:00,43.0,40.0,29.72,NE,45,0.0,0.0,89,0.00,CLR,,0.01,WeatherDisplay:10.37,2013-02-13 13:12:00,
2013-02-13 05:17:00,43.0,40.0,29.73,East,90,0.0,0.0,89,0.00,CLR,,0.01,WeatherDisplay:10.37,2013-02-13 13:17:00,
2013-02-13 05:22:00,43.0,40.0,29.72,East,90,0.0,0.0,89,0.00,CLR,,0.01,WeatherDisplay:10.37,2013-02-13 13:22:00,
2013-02-13 05:27:00,42.8,39.8,29.72,East,90,0.0,0.0,89,0.00,CLR,,0.01,WeatherDisplay:10.37,2013-02-13 13:27:00,
2013-02-13 05:32:00,42.8,39.8,29.72,East,90,0.0,0.0,89,0.00,CLR,,0.01,WeatherDisplay:10.37,2013-02-13 13:32:00,
2013-02-13 05:37:00,42.8,39.8,29.73,East,90,0.0,0.0,89,0.00,CLR,,0.01,WeatherDisplay:10.37,2013-02-13 13:37:00,
2013-02-13 05:42:00,42.8,39.8,29.73,East,90,0.0,0.0,89,0.00,CLR,,0.01,WeatherDisplay:10.37,2013-02-13 13:42:00,
2013-02-13 05:47:00,42.6,39.9,29.73,East,90,0.0,0.0,90,0.00,CLR,,0.01,WeatherDisplay:10.37,2013-02-13 13:47:00,
2013-02-13 05:52:00,42.6,39.9,29.73,NE,45,0.0,0.0,90,0.00,CLR,,0.01,WeatherDisplay:10.37,2013-02-13 13:52:00,
2013-02-13 05:57:00,42.4,39.7,29.73,NE,45,0.0,0.0,90,0.00,CLR,,0.01,WeatherDisplay:10.37,2013-02-13 13:57:00,
2013-02-13 06:02:00,42.4,39.7,29.73,East,90,0.0,0.0,90,0.00,CLR,,0.01,WeatherDisplay:10.37,2013-02-13 14:02:00,
2013-02-13 06:07:00,42.4,39.7,29.73,East,90,0.0,0.0,90,0.00,CLR,,0.01,WeatherDisplay:10.37,2013-02-13 14:07:00,
2013-02-13 06:12:00,42.3,39.5,29.73,East,90,0.0,0.0,90,0.00,CLR,,0.01,WeatherDisplay:10.37,2013-02-13 14:12:00,
2013-02-13 06:17:00,42.3,39.5,29.73,East,90,0.0,0.0,90,0.00,CLR,,0.01,WeatherDisplay:10.37,2013-02-13 14:17:00,
2013-02-13 06:22:00,42.3,39.5,29.73,East,90,0.0,0.0,90,0.00,CLR,,0.01,WeatherDisplay:10.37,2013-02-13 14:22:00,
2013-02-13 06:27:00,42.3,39.5,29.74,South,180,0.0,0.0,90,0.00,CLR,,0.01,WeatherDisplay:10.37,2013-02-13 14:27:00,
2013-02-13 06:32:00,42.3,39.5,29.74,SE,135,0.0,0.0,90,0.00,CLR,,0.01,WeatherDisplay:10.37,2013-02-13 14:32:00,
2013-02-13 06:37:00,42.3,39.8,29.74,East,90,0.0,0.0,91,0.00,CLR,,0.01,WeatherDisplay:10.37,2013-02-13 14:37:00,
2013-02-13 06:42:00,42.1,39.6,29.74,NE,45,0.0,0.0,91,0.00,CLR,,0.01,WeatherDisplay:10.37,2013-02-13 14:42:00,
2013-02-13 06:47:00,42.1,39.6,29.74,NE,45,0.0,0.0,91,0.00,CLR,,0.01,WeatherDisplay:10.37,2013-02-13 14:47:00,
2013-02-13 06:52:00,42.1,39.6,29.74,SE,135,0.0,0.0,91,0.00,CLR,,0.01,WeatherDisplay:10.37,2013-02-13 14:52:00,
2013-02-13 06:57:00,42.1,39.6,29.75,SE,135,0.0,0.0,91,0.00,CLR,,0.01,WeatherDisplay:10.37,2013-02-13 14:57:00,
2013-02-13 07:02:00,42.1,39.6,29.75,SE,135,0.0,0.0,91,0.00,CLR,,0.01,WeatherDisplay:10.37,2013-02-13 15:02:00,
2013-02-13 07:07:00,41.9,39.5,29.74,East,90,0.0,0.0,91,0.00,CLR,,0.01,WeatherDisplay:10.37,2013-02-13 15:07:00,
2013-02-13 07:12:00,41.9,39.5,29.75,East,90,0.0,0.0,91,0.01,RA,,0.02,WeatherDisplay:10.37,2013-02-13 15:12:00,
2013-02-13 07:17:00,41.9,39.5,29.75,East,90,0.0,0.0,91,0.01,RA,,0.02,WeatherDisplay:10.37,2013-02-13 15:17:00,
2013-02-13 07:22:00,41.9,39.7,29.74,East,90,0.0,0.0,92,0.01,CLR,,0.02,WeatherDisplay:10.37,2013-02-13 15:22:00,
2013-02-13 07:27:00,41.9,39.7,29.74,East,90,0.0,0.0,92,0.01,CLR,,0.02,WeatherDisplay:10.37,2013-02-13 15:27:00,
2013-02-13 07:32:00,41.9,39.7,29.75,East,90,0.0,0.0,92,0.01,CLR,,0.02,WeatherDisplay:10.37,2013-02-13 15:32:00,
2013-02-13 07:37:00,41.9,39.7,29.75,East,90,0.0,0.0,92,0.01,CLR,,0.02,WeatherDisplay:10.37,2013-02-13 15:37:00,
2013-02-13 07:43:00,41.9,39.7,29.75,East,90,0.0,0.0,92,0.01,CLR,,0.02,WeatherDisplay:10.37,2013-02-13 15:43:00,
2013-02-13 07:48:00,41.9,39.7,29.75,NE,45,0.0,0.0,92,0.01,CLR,,0.02,WeatherDisplay:10.37,2013-02-13 15:48:00,
2013-02-13 07:53:00,41.9,39.7,29.76,SW,225,0.0,0.0,92,0.02,RA,,0.04,WeatherDisplay:10.37,2013-02-13 15:53:00,
2013-02-13 07:58:00,41.9,40.0,29.76,SW,225,0.0,0.0,93,0.02,RA,,0.04,WeatherDisplay:10.37,2013-02-13 15:58:00,
2013-02-13 08:03:00,41.9,40.0,29.76,East,90,0.0,0.0,93,0.02,,,0.04,WeatherDisplay:10.37,2013-02-13 16:03:00,
2013-02-13 08:08:00,41.9,40.0,29.76,NE,45,0.0,0.0,93,0.02,CLR,,0.04,WeatherDisplay:10.37,2013-02-13 16:08:00,
2013-02-13 08:13:00,41.9,40.0,29.76,East,90,0.0,0.0,93,0.01,CLR,,0.04,WeatherDisplay:10.37,2013-02-13 16:13:00,
2013-02-13 08:18:00,42.1,40.2,29.76,NE,45,0.0,0.0,93,0.01,CLR,,0.04,WeatherDisplay:10.37,2013-02-13 16:18:00,
2013-02-13 08:23:00,42.1,40.5,29.76,East,90,0.0,0.0,94,0.02,RA,,0.05,WeatherDisplay:10.37,2013-02-13 16:23:00,
2013-02-13 08:28:00,42.3,40.7,29.76,East,90,0.0,0.0,94,0.02,RA,,0.05,WeatherDisplay:10.37,2013-02-13 16:28:00,
2013-02-13 08:33:00,42.3,40.7,29.77,SE,135,0.0,0.0,94,0.02,,,0.05,WeatherDisplay:10.37,2013-02-13 16:33:00,
2013-02-13 08:38:00,42.4,40.8,29.77,SE,135,0.0,0.0,94,0.02,CLR,,0.05,WeatherDisplay:10.37,2013-02-13 16:38:00,
2013-02-13 08:43:00,42.6,41.0,29.77,SE,135,0.0,0.0,94,0.02,CLR,,0.05,WeatherDisplay:10.37,2013-02-13 16:43:00,
2013-02-13 08:48:00,42.8,41.2,29.77,East,90,0.0,0.0,94,0.02,CLR,,0.05,WeatherDisplay:10.37,2013-02-13 16:48:00,
2013-02-13 08:53:00,42.8,41.2,29.77,SE,135,0.0,0.0,94,0.01,CLR,,0.05,WeatherDisplay:10.37,2013-02-13 16:53:00,
2013-02-13 08:58:00,43.0,41.4,29.77,SE,135,0.0,0.0,94,0.01,CLR,,0.05,WeatherDisplay:10.37,2013-02-13 16:58:00,
2013-02-13 09:03:00,43.2,41.6,29.77,West,270,0.0,0.0,94,0.01,CLR,,0.05,WeatherDisplay:10.37,2013-02-13 17:03:00,
2013-02-13 09:08:00,43.3,41.7,29.77,West,270,0.0,0.0,94,0.01,CLR,,0.05,WeatherDisplay:10.37,2013-02-13 17:08:00,
2013-02-13 09:13:00,43.3,41.7,29.78,West,270,0.0,0.0,94,0.01,CLR,,0.05,WeatherDisplay:10.37,2013-02-13 17:13:00,
2013-02-13 09:18:00,43.3,41.7,29.78,SE,135,0.0,0.0,94,0.01,CLR,,0.05,WeatherDisplay:10.37,2013-02-13 17:18:00,
2013-02-13 09:23:00,43.5,41.9,29.77,SE,135,0.0,0.0,94,0.00,CLR,,0.05,WeatherDisplay:10.37,2013-02-13 17:23:00,
2013-02-13 09:28:00,43.9,42.3,29.78,North,0,0.0,0.0,94,0.00,CLR,,0.05,WeatherDisplay:10.37,2013-02-13 17:28:00,
2013-02-13 09:33:00,43.9,42.3,29.78,North,0,0.0,0.0,94,0.00,CLR,,0.05,WeatherDisplay:10.37,2013-02-13 17:33:00,
2013-02-13 09:38:00,44.1,42.4,29.78,West,270,0.0,0.0,94,0.00,CLR,,0.05,WeatherDisplay:10.37,2013-02-13 17:38:00,
2013-02-13 09:43:00,44.2,42.6,29.78,SE,135,0.0,0.0,94,0.00,CLR,,0.05,WeatherDisplay:10.37,2013-02-13 17:43:00,
2013-02-13 09:48:00,44.8,43.4,29.78,East,90,0.0,0.0,95,0.00,CLR,,0.05,WeatherDisplay:10.37,2013-02-13 17:48:00,
2013-02-13 09:53:00,45.0,43.3,29.78,East,90,0.0,0.0,94,0.00,CLR,,0.05,WeatherDisplay:10.37,2013-02-13 17:53:00,
2013-02-13 09:58:00,45.1,43.5,29.79,South,180,0.0,0.0,94,0.00,CLR,,0.05,WeatherDisplay:10.37,2013-02-13 17:58:00,
2013-02-13 10:03:00,45.3,43.7,29.78,East,90,0.0,0.0,94,0.00,CLR,,0.05,WeatherDisplay:10.37,2013-02-13 18:03:00,
2013-02-13 10:08:00,45.3,43.7,29.79,South,180,0.0,0.0,94,0.00,CLR,,0.05,WeatherDisplay:10.37,2013-02-13 18:08:00,
2013-02-13 10:13:00,45.3,43.7,29.78,North,0,0.0,0.0,94,0.00,CLR,,0.05,WeatherDisplay:10.37,2013-02-13 18:13:00,
2013-02-13 10:18:00,45.5,43.6,29.79,NW,315,0.0,0.0,93,0.00,CLR,,0.05,WeatherDisplay:10.37,2013-02-13 18:18:00,
2013-02-13 10:23:00,45.7,43.8,29.79,SE,135,0.0,0.0,93,0.00,CLR,,0.05,WeatherDisplay:10.37,2013-02-13 18:23:00,
2013-02-13 10:28:00,45.9,44.0,29.79,NE,45,0.0,0.0,93,0.00,CLR,,0.05,WeatherDisplay:10.37,2013-02-13 18:28:00,
2013-02-13 10:33:00,46.2,44.0,29.79,SE,135,0.0,0.0,92,0.00,CLR,,0.05,WeatherDisplay:10.37,2013-02-13 18:33:00,
2013-02-13 10:38:00,46.2,44.0,29.79,East,90,0.0,0.0,92,0.00,CLR,,0.05,WeatherDisplay:10.37,2013-02-13 18:38:00,
2013-02-13 10:43:00,46.4,44.2,29.79,SW,225,0.0,0.0,92,0.00,CLR,,0.05,WeatherDisplay:10.37,2013-02-13 18:43:00,
2013-02-13 10:48:00,46.2,43.7,29.79,North,0,0.0,0.0,91,0.00,CLR,,0.05,WeatherDisplay:10.37,2013-02-13 18:48:00,
2013-02-13 10:53:00,46.0,43.6,29.79,South,180,0.0,0.0,91,0.00,CLR,,0.05,WeatherDisplay:10.37,2013-02-13 18:53:00,
2013-02-13 10:58:00,46.0,43.6,29.79,SW,225,0.0,0.0,91,0.00,CLR,,0.05,WeatherDisplay:10.37,2013-02-13 18:58:00,
2013-02-13 11:03:00,46.2,43.4,29.80,East,90,0.0,0.0,90,0.00,CLR,,0.05,WeatherDisplay:10.37,2013-02-13 19:03:00,
2013-02-13 11:08:00,46.8,44.0,29.80,SE,135,0.0,0.0,90,0.00,CLR,,0.05,WeatherDisplay:10.37,2013-02-13 19:08:00,
2013-02-13 11:13:00,46.8,43.7,29.80,East,90,0.0,0.0,89,0.00,CLR,,0.05,WeatherDisplay:10.37,2013-02-13 19:13:00,
2013-02-13 11:18:00,46.9,43.9,29.79,East,90,0.0,0.0,89,0.00,CLR,,0.05,WeatherDisplay:10.37,2013-02-13 19:18:00,
2013-02-13 11:23:00,46.8,43.7,29.80,South,180,0.0,0.0,89,0.00,CLR,,0.05,WeatherDisplay:10.37,2013-02-13 19:23:00,
2013-02-13 11:28:00,46.8,43.4,29.80,NW,315,0.0,0.0,88,0.00,CLR,,0.05,WeatherDisplay:10.37,2013-02-13 19:28:00,
2013-02-13 11:33:00,46.9,43.3,29.80,East,90,0.0,0.0,87,0.00,CLR,,0.05,WeatherDisplay:10.37,2013-02-13 19:33:00,
2013-02-13 11:38:00,46.8,43.1,29.80,SE,135,0.0,0.0,87,0.00,CLR,,0.05,WeatherDisplay:10.37,2013-02-13 19:38:00,
2013-02-13 11:43:00,47.1,43.4,29.79,North,0,0.0,0.0,87,0.00,CLR,,0.05,WeatherDisplay:10.37,2013-02-13 19:43:00,
2013-02-13 11:48:00,47.1,43.1,29.79,SW,225,0.0,0.0,86,0.00,CLR,,0.05,WeatherDisplay:10.37,2013-02-13 19:48:00,
2013-02-13 11:53:00,47.3,43.3,29.79,SW,225,0.0,0.0,86,0.00,CLR,,0.05,WeatherDisplay:10.37,2013-02-13 19:53:00,
2013-02-13 11:58:00,47.3,43.0,29.79,South,180,0.0,0.0,85,0.00,CLR,,0.05,WeatherDisplay:10.37,2013-02-13 19:58:00,
2013-02-13 12:03:00,47.3,43.0,29.79,SE,135,0.0,0.0,85,0.00,CLR,,0.05,WeatherDisplay:10.37,2013-02-13 20:03:00,
2013-02-13 12:08:00,47.1,42.8,29.79,East,90,0.0,0.0,85,0.00,CLR,,0.05,WeatherDisplay:10.37,2013-02-13 20:08:00,
2013-02-13 12:13:00,47.3,43.0,29.78,East,90,0.0,0.0,85,0.00,CLR,,0.05,WeatherDisplay:10.37,2013-02-13 20:13:00,
2013-02-13 12:18:00,47.5,43.2,29.79,South,180,0.0,0.0,85,0.00,CLR,,0.05,WeatherDisplay:10.37,2013-02-13 20:18:00,
2013-02-13 12:23:00,47.3,43.0,29.80,East,90,0.0,0.0,85,0.00,CLR,,0.05,WeatherDisplay:10.37,2013-02-13 20:23:00,
2013-02-13 12:29:00,46.9,42.4,29.79,SW,225,0.0,0.0,84,0.00,CLR,,0.05,WeatherDisplay:10.37,2013-02-13 20:29:00,
2013-02-13 12:34:00,46.9,42.4,29.79,West,270,0.0,0.0,84,0.00,CLR,,0.05,WeatherDisplay:10.37,2013-02-13 20:34:00,
2013-02-13 12:39:00,46.9,42.4,29.79,South,180,0.0,0.0,84,0.00,CLR,,0.05,WeatherDisplay:10.37,2013-02-13 20:39:00,
2013-02-13 12:44:00,46.6,41.7,29.79,South,180,0.0,0.0,83,0.00,CLR,,0.05,WeatherDisplay:10.37,2013-02-13 20:44:00,
2013-02-13 12:49:00,46.6,42.0,29.79,North,0,0.0,0.0,84,0.00,CLR,,0.05,WeatherDisplay:10.37,2013-02-13 20:49:00,
2013-02-13 12:54:00,46.6,42.0,29.79,East,90,0.0,0.0,84,0.00,CLR,,0.05,WeatherDisplay:10.37,2013-02-13 20:54:00,
2013-02-13 12:59:00,46.8,42.2,29.79,South,180,0.0,0.0,84,0.00,CLR,,0.05,WeatherDisplay:10.37,2013-02-13 20:59:00,
2013-02-13 13:04:00,46.8,42.2,29.79,NE,45,0.0,0.0,84,0.00,CLR,,0.05,WeatherDisplay:10.37,2013-02-13 21:04:00,
2013-02-13 13:09:00,46.9,42.0,29.79,East,90,0.0,0.0,83,0.00,CLR,,0.05,WeatherDisplay:10.37,2013-02-13 21:09:00,
2013-02-13 13:14:00,47.5,42.6,29.78,South,180,0.0,0.0,83,0.00,CLR,,0.05,WeatherDisplay:10.37,2013-02-13 21:14:00,
2013-02-13 13:19:00,47.8,42.9,29.78,South,180,0.0,0.0,83,0.00,CLR,,0.05,WeatherDisplay:10.37,2013-02-13 21:19:00,
2013-02-13 13:24:00,47.8,42.9,29.78,West,270,0.0,0.0,83,0.00,CLR,,0.05,WeatherDisplay:10.37,2013-02-13 21:24:00,
2013-02-13 13:29:00,48.0,42.8,29.79,SE,135,0.0,0.0,82,0.00,CLR,,0.05,WeatherDisplay:10.37,2013-02-13 21:29:00,
2013-02-13 13:34:00,48.2,42.6,29.79,East,90,0.0,0.0,81,0.00,CLR,,0.05,WeatherDisplay:10.37,2013-02-13 21:34:00,
2013-02-13 13:39:00,48.2,42.6,29.78,SE,135,0.0,0.0,81,0.00,CLR,,0.05,WeatherDisplay:10.37,2013-02-13 21:39:00,
2013-02-13 13:44:00,48.0,42.5,29.79,South,180,0.0,0.0,81,0.00,CLR,,0.05,WeatherDisplay:10.37,2013-02-13 21:44:00,
2013-02-13 13:49:00,48.2,42.6,29.78,East,90,0.0,0.0,81,0.00,CLR,,0.05,WeatherDisplay:10.37,2013-02-13 21:49:00,
2013-02-13 13:54:00,48.2,43.0,29.79,SSE,158,0.0,0.0,82,0.00,CLR,,0.05,WeatherDisplay:10.37,2013-02-13 21:54:00,
2013-02-13 13:59:00,48.2,42.6,29.79,East,90,0.0,0.0,81,0.00,CLR,,0.05,WeatherDisplay:10.37,2013-02-13 21:59:00,
2013-02-13 14:04:00,48.4,42.8,29.79,SE,135,0.0,0.0,81,0.00,CLR,,0.05,WeatherDisplay:10.37,2013-02-13 22:04:00,
2013-02-13 14:09:00,48.2,42.6,29.78,East,90,0.0,0.0,81,0.00,CLR,,0.05,WeatherDisplay:10.37,2013-02-13 22:09:00,
2013-02-13 14:14:00,48.0,42.5,29.78,North,0,0.0,0.0,81,0.00,CLR,,0.05,WeatherDisplay:10.37,2013-02-13 22:14:00,
2013-02-13 14:19:00,48.2,43.0,29.79,South,180,0.0,0.0,82,0.00,CLR,,0.05,WeatherDisplay:10.37,2013-02-13 22:19:00,
2013-02-13 14:24:00,48.4,42.8,29.78,East,90,0.0,0.0,81,0.00,CLR,,0.05,WeatherDisplay:10.37,2013-02-13 22:24:00,
2013-02-13 14:29:00,48.7,43.2,29.79,SE,135,0.0,0.0,81,0.00,CLR,,0.05,WeatherDisplay:10.37,2013-02-13 22:29:00,
2013-02-13 14:34:00,48.7,43.2,29.79,West,270,0.0,0.0,81,0.00,CLR,,0.05,WeatherDisplay:10.37,2013-02-13 22:34:00,
2013-02-13 14:39:00,48.6,43.0,29.79,NE,45,0.0,0.0,81,0.00,CLR,,0.05,WeatherDisplay:10.37,2013-02-13 22:39:00,
2013-02-13 14:44:00,48.4,42.5,29.79,NW,315,0.0,0.0,80,0.00,CLR,,0.05,WeatherDisplay:10.37,2013-02-13 22:44:00,
2013-02-13 14:49:00,48.0,42.1,29.79,West,270,0.0,0.0,80,0.00,CLR,,0.05,WeatherDisplay:10.37,2013-02-13 22:49:00,
2013-02-13 14:54:00,47.8,42.3,29.79,West,270,0.0,0.0,81,0.00,CLR,,0.05,WeatherDisplay:10.37,2013-02-13 22:54:00,
2013-02-13 14:59:00,47.7,42.1,29.80,SW,225,0.0,0.0,81,0.00,CLR,,0.05,WeatherDisplay:10.37,2013-02-13 22:59:00,
2013-02-13 15:04:00,47.7,42.1,29.80,West,270,0.0,0.0,81,0.00,CLR,,0.05,WeatherDisplay:10.37,2013-02-13 23:04:00,
2013-02-13 15:09:00,47.5,41.9,29.80,West,270,0.0,0.0,81,0.00,CLR,,0.05,WeatherDisplay:10.37,2013-02-13 23:09:00,
2013-02-13 15:14:00,47.5,42.3,29.79,SW,225,0.0,0.0,82,0.00,CLR,,0.05,WeatherDisplay:10.37,2013-02-13 23:14:00,
2013-02-13 15:19:00,47.5,42.3,29.79,West,270,0.0,0.0,82,0.00,CLR,,0.05,WeatherDisplay:10.37,2013-02-13 23:19:00,
2013-02-13 15:24:00,47.3,42.1,29.79,SW,225,0.0,0.0,82,0.00,CLR,,0.05,WeatherDisplay:10.37,2013-02-13 23:24:00,
2013-02-13 15:29:00,46.9,42.4,29.79,West,270,0.0,0.0,84,0.00,CLR,,0.05,WeatherDisplay:10.37,2013-02-13 23:29:00,
2013-02-13 15:34:00,46.6,42.0,29.79,West,270,0.0,0.0,84,0.00,CLR,,0.05,WeatherDisplay:10.37,2013-02-13 23:34:00,
2013-02-13 15:39:00,46.4,42.1,29.79,West,270,0.0,0.0,85,0.00,CLR,,0.05,WeatherDisplay:10.37,2013-02-13 23:39:00,
2013-02-13 15:44:00,46.4,42.4,29.80,West,270,0.0,0.0,86,0.00,CLR,,0.05,WeatherDisplay:10.37,2013-02-13 23:44:00,
2013-02-13 15:49:00,46.4,42.1,29.79,West,270,0.0,0.0,85,0.00,CLR,,0.05,WeatherDisplay:10.37,2013-02-13 23:49:00,
2013-02-13 15:54:00,46.4,42.1,29.80,West,270,0.0,0.0,85,0.00,CLR,,0.05,WeatherDisplay:10.37,2013-02-13 23:54:00,
2013-02-13 15:59:00,46.2,42.0,29.80,West,270,0.0,0.0,85,0.00,CLR,,0.05,WeatherDisplay:10.37,2013-02-13 23:59:00,
2013-02-13 16:04:00,46.2,42.0,29.79,West,270,0.0,0.0,85,0.00,RA,,0.00,WeatherDisplay:10.37,2013-02-14 00:04:00,
2013-02-13 16:09:00,46.0,41.8,29.79,North,0,0.0,0.0,85,0.00,RA,,0.00,WeatherDisplay:10.37,2013-02-14 00:09:00,
2013-02-13 16:14:00,46.0,41.5,29.80,West,270,0.0,0.0,84,0.00,CLR,,0.00,WeatherDisplay:10.37,2013-02-14 00:14:00,
2013-02-13 16:19:00,45.9,41.0,29.80,West,270,0.0,0.0,83,0.00,CLR,,0.00,WeatherDisplay:10.37,2013-02-14 00:19:00,
2013-02-13 16:24:00,45.9,41.0,29.80,West,270,0.0,0.0,83,0.00,CLR,,0.00,WeatherDisplay:10.37,2013-02-14 00:24:00,
2013-02-13 16:29:00,45.9,41.3,29.80,West,270,0.0,0.0,84,0.00,CLR,,0.00,WeatherDisplay:10.37,2013-02-14 00:29:00,
2013-02-13 16:34:00,45.7,41.1,29.80,West,270,0.0,0.0,84,0.00,CLR,,0.00,WeatherDisplay:10.37,2013-02-14 00:34:00,
2013-02-13 16:39:00,45.5,40.9,29.80,West,270,0.0,0.0,84,0.00,CLR,,0.00,WeatherDisplay:10.37,2013-02-14 00:39:00,
2013-02-13 16:44:00,45.5,40.9,29.81,SW,225,0.0,0.0,84,0.00,CLR,,0.00,WeatherDisplay:10.37,2013-02-14 00:44:00,
2013-02-13 16:49:00,45.5,41.3,29.81,SW,225,0.0,0.0,85,0.00,CLR,,0.00,WeatherDisplay:10.37,2013-02-14 00:49:00,
2013-02-13 16:54:00,45.3,41.1,29.80,SW,225,0.0,0.0,85,0.00,CLR,,0.00,WeatherDisplay:10.37,2013-02-14 00:54:00,
2013-02-13 16:59:00,45.3,41.1,29.80,SW,225,0.0,0.0,85,0.00,CLR,,0.00,WeatherDisplay:10.37,2013-02-14 00:59:00,
2013-02-13 17:04:00,45.3,41.1,29.80,South,180,0.0,0.0,85,0.00,CLR,,0.00,WeatherDisplay:10.37,2013-02-14 01:04:00,
2013-02-13 17:10:00,45.1,40.9,29.80,South,180,0.0,0.0,85,0.00,CLR,,0.00,WeatherDisplay:10.37,2013-02-14 01:10:00,
2013-02-13 17:15:00,45.1,40.9,29.81,South,180,0.0,0.0,85,0.00,CLR,,0.00,WeatherDisplay:10.37,2013-02-14 01:15:00,
2013-02-13 17:20:00,45.1,41.2,29.80,South,180,0.0,0.0,86,0.00,CLR,,0.00,WeatherDisplay:10.37,2013-02-14 01:20:00,
2013-02-13 17:25:00,45.0,41.0,29.81,South,180,0.0,0.0,86,0.00,CLR,,0.00,WeatherDisplay:10.37,2013-02-14 01:25:00,
2013-02-13 17:30:00,45.0,41.0,29.81,South,180,0.0,0.0,86,0.00,CLR,CLR,0.00,WeatherDisplay:10.37,2013-02-14 01:30:00,
2013-02-13 17:35:00,44.8,40.8,29.81,South,180,0.0,0.0,86,0.00,CLR,,0.00,WeatherDisplay:10.37,2013-02-14 01:35:00,
2013-02-13 17:40:00,44.8,40.8,29.81,South,180,0.0,0.0,86,0.00,CLR,,0.00,WeatherDisplay:10.37,2013-02-14 01:40:00,
2013-02-13 17:45:00,44.8,40.8,29.81,South,180,0.0,0.0,86,0.00,CLR,CLR,0.00,WeatherDisplay:10.37,2013-02-14 01:45:00,
2013-02-13 17:50:00,44.6,40.7,29.81,South,180,0.0,0.0,86,0.00,CLR,,0.00,WeatherDisplay:10.37,2013-02-14 01:50:00,
2013-02-13 17:55:00,44.6,41.0,29.81,South,180,0.0,0.0,87,0.00,CLR,CLR,0.00,WeatherDisplay:10.37,2013-02-14 01:55:00,
2013-02-13 18:00:00,44.6,41.0,29.81,South,180,0.0,0.0,87,0.00,CLR,CLR,0.00,WeatherDisplay:10.37,2013-02-14 02:00:00,
2013-02-13 18:05:00,44.4,40.8,29.81,South,180,0.0,0.0,87,0.00,CLR,,0.00,WeatherDisplay:10.37,2013-02-14 02:05:00,
2013-02-13 18:10:00,44.4,40.8,29.81,South,180,0.0,0.0,87,0.00,CLR,CLR,0.00,WeatherDisplay:10.37,2013-02-14 02:10:00,
2013-02-13 18:15:00,44.4,40.8,29.81,South,180,0.0,0.0,87,0.00,CLR,CLR,0.00,WeatherDisplay:10.37,2013-02-14 02:15:00,
2013-02-13 18:20:00,44.2,40.9,29.81,South,180,0.0,0.0,88,0.00,CLR,,0.00,WeatherDisplay:10.37,2013-02-14 02:20:00,
2013-02-13 18:25:00,44.2,40.9,29.81,South,180,0.0,0.0,88,0.00,CLR,CLR,0.00,WeatherDisplay:10.37,2013-02-14 02:25:00,
2013-02-13 18:30:00,44.2,40.9,29.81,South,180,0.0,0.0,88,0.00,CLR,,0.00,WeatherDisplay:10.37,2013-02-14 02:30:00,
2013-02-13 18:35:00,44.1,40.7,29.80,South,180,0.0,0.0,88,0.00,CLR,,0.00,WeatherDisplay:10.37,2013-02-14 02:35:00,
2013-02-13 18:40:00,44.1,40.7,29.81,South,180,0.0,0.0,88,0.00,CLR,CLR,0.00,WeatherDisplay:10.37,2013-02-14 02:40:00,
2013-02-13 18:45:00,44.1,40.7,29.81,South,180,0.0,0.0,88,0.00,CLR,,0.00,WeatherDisplay:10.37,2013-02-14 02:45:00,
2013-02-13 18:50:00,44.1,40.7,29.81,South,180,0.0,0.0,88,0.00,CLR,CLR,0.00,WeatherDisplay:10.37,2013-02-14 02:50:00,
2013-02-13 18:55:00,43.9,40.6,29.81,South,180,0.0,0.0,88,0.00,CLR,,0.00,WeatherDisplay:10.37,2013-02-14 02:55:00,
2013-02-13 19:00:00,43.9,40.6,29.81,East,90,0.0,0.0,88,0.00,CLR,,0.00,WeatherDisplay:10.37,2013-02-14 03:00:00,
2013-02-13 19:05:00,43.8,40.5,29.82,East,96,0.0,0.0,88,0.00,CLR,CLR,0.00,WeatherDisplay:10.37,2013-02-14 03:05:00,
2013-02-13 19:10:00,43.7,40.7,29.82,East,90,0.0,0.0,89,0.00,CLR,CLR,0.00,WeatherDisplay:10.37,2013-02-14 03:10:00,
2013-02-13 19:15:00,43.5,40.5,29.82,East,90,0.0,0.0,89,0.00,CLR,,0.00,WeatherDisplay:10.37,2013-02-14 03:15:00,
2013-02-13 19:20:00,43.5,40.5,29.81,East,90,0.0,0.0,89,0.00,CLR,,0.00,WeatherDisplay:10.37,2013-02-14 03:20:00,
2013-02-13 19:25:00,43.3,40.3,29.81,East,90,0.0,0.0,89,0.00,CLR,,0.00,WeatherDisplay:10.37,2013-02-14 03:25:00,
2013-02-13 19:30:00,43.2,40.1,29.82,East,90,0.0,0.0,89,0.00,CLR,,0.00,WeatherDisplay:10.37,2013-02-14 03:30:00,
2013-02-13 19:35:00,43.0,40.0,29.82,East,90,0.0,0.0,89,0.00,CLR,,0.00,WeatherDisplay:10.37,2013-02-14 03:35:00,
2013-02-13 19:40:00,43.0,40.0,29.82,East,90,0.0,0.0,89,0.00,CLR,CLR,0.00,WeatherDisplay:10.37,2013-02-14 03:40:00,
2013-02-13 19:45:00,42.8,39.8,29.83,East,90,0.0,0.0,89,0.00,CLR,,0.00,WeatherDisplay:10.37,2013-02-14 03:45:00,
2013-02-13 19:50:00,42.8,40.1,29.83,East,90,0.0,0.0,90,0.00,CLR,CLR,0.00,WeatherDisplay:10.37,2013-02-14 03:50:00,
2013-02-13 19:55:00,42.6,39.9,29.83,East,90,0.0,0.0,90,0.00,CLR,,0.00,WeatherDisplay:10.37,2013-02-14 03:55:00,
2013-02-13 20:00:00,42.6,39.9,29.83,East,90,0.0,0.0,90,0.00,CLR,CLR,0.00,WeatherDisplay:10.37,2013-02-14 04:00:00,
2013-02-13 20:05:00,42.4,39.7,29.83,East,90,0.0,0.0,90,0.00,CLR,CLR,0.00,WeatherDisplay:10.37,2013-02-14 04:05:00,
2013-02-13 20:10:00,42.4,39.7,29.83,East,90,0.0,0.0,90,0.00,CLR,CLR,0.00,WeatherDisplay:10.37,2013-02-14 04:10:00,
2013-02-13 20:15:00,42.4,39.7,29.82,East,90,0.0,0.0,90,0.00,CLR,,0.00,WeatherDisplay:10.37,2013-02-14 04:15:00,
2013-02-13 20:20:00,42.4,39.7,29.82,East,90,0.0,0.0,90,0.00,CLR,CLR,0.00,WeatherDisplay:10.37,2013-02-14 04:20:00,
2013-02-13 20:25:00,42.4,39.7,29.83,East,90,0.0,0.0,90,0.00,CLR,,0.00,WeatherDisplay:10.37,2013-02-14 04:25:00,
2013-02-13 20:30:00,42.4,40.0,29.83,East,90,0.0,0.0,91,0.00,CLR,,0.00,WeatherDisplay:10.37,2013-02-14 04:30:00,
2013-02-13 20:35:00,42.4,40.0,29.83,SE,135,0.0,0.0,91,0.00,CLR,,0.00,WeatherDisplay:10.37,2013-02-14 04:35:00,
2013-02-13 20:40:00,42.4,40.0,29.83,East,90,0.0,0.0,91,0.00,CLR,,0.00,WeatherDisplay:10.37,2013-02-14 04:40:00,
2013-02-13 20:45:00,42.4,40.0,29.83,East,90,0.0,0.0,91,0.00,CLR,CLR,0.00,WeatherDisplay:10.37,2013-02-14 04:45:00,
2013-02-13 20:50:00,42.3,39.8,29.82,East,90,0.0,0.0,91,0.00,CLR,,0.00,WeatherDisplay:10.37,2013-02-14 04:50:00,
2013-02-13 20:55:00,42.1,39.6,29.83,East,90,0.0,0.0,91,0.00,CLR,CLR,0.00,WeatherDisplay:10.37,2013-02-14 04:55:00,
2013-02-13 21:00:00,42.1,39.6,29.82,East,90,0.0,0.0,91,0.00,CLR,,0.00,WeatherDisplay:10.37,2013-02-14 05:00:00,
2013-02-13 21:05:00,42.1,39.6,29.83,East,90,0.0,0.0,91,0.00,CLR,,0.00,WeatherDisplay:10.37,2013-02-14 05:05:00,
2013-02-13 21:10:00,41.9,39.5,29.82,East,90,0.0,0.0,91,0.00,CLR,,0.00,WeatherDisplay:10.37,2013-02-14 05:10:00,
2013-02-13 21:15:00,41.9,39.5,29.83,East,90,0.0,0.0,91,0.00,CLR,,0.00,WeatherDisplay:10.37,2013-02-14 05:15:00,
2013-02-13 21:20:00,41.9,39.5,29.83,East,90,0.0,0.0,91,0.00,CLR,,0.00,WeatherDisplay:10.37,2013-02-14 05:20:00,
2013-02-13 21:25:00,41.9,39.5,29.83,East,90,0.0,0.0,91,0.00,CLR,,0.00,WeatherDisplay:10.37,2013-02-14 05:25:00,
2013-02-13 21:30:00,41.9,39.5,29.83,East,90,0.0,0.0,91,0.00,CLR,,0.00,WeatherDisplay:10.37,2013-02-14 05:30:00,
2013-02-13 21:35:00,41.9,39.7,29.83,East,90,0.0,0.0,92,0.00,CLR,,0.00,WeatherDisplay:10.37,2013-02-14 05:35:00,
2013-02-13 21:40:00,41.9,39.7,29.83,East,90,0.0,0.0,92,0.00,CLR,,0.00,WeatherDisplay:10.37,2013-02-14 05:40:00,
2013-02-13 21:45:00,41.7,39.6,29.83,East,90,0.0,0.0,92,0.00,CLR,,0.00,WeatherDisplay:10.37,2013-02-14 05:45:00,
2013-02-13 21:50:00,41.7,39.6,29.84,East,90,0.0,0.0,92,0.00,CLR,,0.00,WeatherDisplay:10.37,2013-02-14 05:50:00,
2013-02-13 21:55:00,41.7,39.6,29.84,East,90,0.0,0.0,92,0.00,CLR,,0.00,WeatherDisplay:10.37,2013-02-14 05:55:00,
2013-02-13 22:00:00,41.7,39.6,29.84,East,90,0.0,0.0,92,0.00,CLR,,0.00,WeatherDisplay:10.37,2013-02-14 06:00:00,
2013-02-13 22:05:00,41.7,39.6,29.85,East,90,0.0,0.0,92,0.00,CLR,,0.00,WeatherDisplay:10.37,2013-02-14 06:05:00,
2013-02-13 22:10:00,41.7,39.6,29.85,East,90,0.0,0.0,92,0.00,CLR,,0.00,WeatherDisplay:10.37,2013-02-14 06:10:00,
2013-02-13 22:15:00,41.7,39.6,29.85,East,90,0.0,0.0,92,0.00,CLR,,0.00,WeatherDisplay:10.37,2013-02-14 06:15:00,
2013-02-13 22:20:00,41.7,39.6,29.85,East,90,0.0,0.0,92,0.00,CLR,,0.00,WeatherDisplay:10.37,2013-02-14 06:20:00,
2013-02-13 22:25:00,41.7,39.6,29.84,East,90,0.0,0.0,92,0.00,CLR,,0.00,WeatherDisplay:10.37,2013-02-14 06:25:00,
2013-02-13 22:30:00,41.7,39.6,29.84,East,90,0.0,0.0,92,0.00,CLR,,0.00,WeatherDisplay:10.37,2013-02-14 06:30:00,
2013-02-13 22:35:00,41.7,39.6,29.84,East,90,0.0,0.0,92,0.00,CLR,,0.00,WeatherDisplay:10.37,2013-02-14 06:35:00,
2013-02-13 22:40:00,41.9,40.0,29.84,East,90,0.0,0.0,93,0.00,CLR,,0.00,WeatherDisplay:10.37,2013-02-14 06:40:00,
2013-02-13 22:45:00,41.9,39.7,29.84,East,90,0.0,0.0,92,0.00,CLR,,0.00,WeatherDisplay:10.37,2013-02-14 06:45:00,
2013-02-13 22:50:00,41.9,40.0,29.84,East,90,0.0,0.0,93,0.00,CLR,,0.00,WeatherDisplay:10.37,2013-02-14 06:50:00,
2013-02-13 22:55:00,41.9,40.0,29.85,East,90,0.0,0.0,93,0.00,CLR,,0.00,WeatherDisplay:10.37,2013-02-14 06:55:00,
2013-02-13 23:00:00,41.9,40.0,29.84,East,90,0.0,0.0,93,0.00,CLR,,0.00,WeatherDisplay:10.37,2013-02-14 07:00:00,
2013-02-13 23:05:00,41.9,40.0,29.84,East,90,0.0,0.0,93,0.00,CLR,,0.00,WeatherDisplay:10.37,2013-02-14 07:05:00,
2013-02-13 23:10:00,41.7,39.6,29.85,East,90,0.0,0.0,92,0.00,CLR,,0.00,WeatherDisplay:10.37,2013-02-14 07:10:00,
2013-02-13 23:15:00,41.7,39.6,29.84,East,90,0.0,0.0,92,0.00,CLR,,0.00,WeatherDisplay:10.37,2013-02-14 07:15:00,
2013-02-13 23:20:00,41.7,39.6,29.85,East,90,0.0,0.0,92,0.00,CLR,,0.00,WeatherDisplay:10.37,2013-02-14 07:20:00,
2013-02-13 23:25:00,41.7,39.6,29.85,East,90,0.0,0.0,92,0.00,CLR,,0.00,WeatherDisplay:10.37,2013-02-14 07:25:00,
2013-02-13 23:30:00,41.7,39.6,29.85,East,90,0.0,0.0,92,0.00,CLR,,0.00,WeatherDisplay:10.37,2013-02-14 07:30:00,
2013-02-13 23:35:00,41.7,39.6,29.85,East,90,0.0,0.0,92,0.00,CLR,,0.00,WeatherDisplay:10.37,2013-02-14 07:35:00,
2013-02-13 23:40:00,41.7,39.6,29.85,East,90,0.0,0.0,92,0.00,CLR,,0.00,WeatherDisplay:10.37,2013-02-14 07:40:00,
2013-02-13 23:45:00,41.7,39.6,29.85,East,90,0.0,0.0,92,0.00,CLR,,0.00,WeatherDisplay:10.37,2013-02-14 07:45:00,
2013-02-13 23:50:00,41.5,39.4,29.85,East,90,0.0,0.0,92,0.00,CLR,,0.00,WeatherDisplay:10.37,2013-02-14 07:50:00,
2013-02-13 23:55:00,41.5,39.4,29.86,East,90,0.0,0.0,92,0.00,CLR,,0.00,WeatherDisplay:10.37,2013-02-14 07:55:00,